• In Latvia
  • List of Countries
  • For 7 days
  • Water Temperature
  • Satellite Maps
  • Weather Map
  • Weather Widgets
  • user-avatar
    Login

    Hourly Weather Fier

    Today, 23 January, Tuesday

    Time Temperature Precipitation Wind Pressure Humidity
    00:00 +5°C° 0 mm 2 mps 760 mmHg 70%
    01:00 +5°C° 0 mm 2 mps 760 mmHg 70%
    02:00 +5°C° 0 mm 2 mps 760 mmHg 69%
    03:00 +5°C° 0 mm 2 mps 760 mmHg 68%
    04:00 +5°C° 0 mm 2 mps 760 mmHg 67%
    05:00 +5°C° 0 mm 2 mps 761 mmHg 65%
    06:00 +5°C° 0 mm 2 mps 761 mmHg 63%
    07:00 +5°C° 0 mm 2 mps 761 mmHg 62%
    08:00 +7°C° 0 mm 2 mps 762 mmHg 57%
    09:00 +8°C° 0 mm 2 mps 762 mmHg 53%
    10:00 +10°C° 0 mm 2 mps 762 mmHg 49%
    11:00 +10°C° 0.1 mm 2 mps 763 mmHg 50%
    12:00 +10°C° 0.1 mm 3 mps 763 mmHg 50%
    13:00 +11°C° 0.1 mm 3 mps 763 mmHg 51%
    14:00 +10°C° 0 mm 3 mps 763 mmHg 55%
    15:00 +10°C° 0 mm 3 mps 763 mmHg 59%
    16:00 +9°C° 0 mm 3 mps 764 mmHg 63%
    17:00 +9°C° 0 mm 3 mps 764 mmHg 64%
    18:00 +8°C° 0 mm 3 mps 765 mmHg 66%
    19:00 +8°C° 0 mm 3 mps 765 mmHg 67%
    20:00 +7°C° 0 mm 3 mps 765 mmHg 67%
    21:00 +7°C° 0 mm 3 mps 766 mmHg 68%
    22:00 +7°C° 0 mm 3 mps 766 mmHg 69%
    23:00 +5°C° 0 mm 3 mps 767 mmHg 69%

    Tomorrow, 24 January, Wednesday

    Time Temperature Precipitation Wind Pressure Humidity
    00:00 +5°C° 0 mm 3 mps 767 mmHg 69%
    01:00 +4°C° 0 mm 4 mps 767 mmHg 70%
    02:00 +4°C° 0 mm 4 mps 768 mmHg 69%
    03:00 +4°C° 0 mm 4 mps 768 mmHg 69%
    04:00 +4°C° 0 mm 4 mps 768 mmHg 68%
    05:00 +3°C° 0 mm 4 mps 769 mmHg 68%
    06:00 +3°C° 0 mm 4 mps 769 mmHg 68%
    07:00 +3°C° 0 mm 4 mps 770 mmHg 68%
    08:00 +5°C° 0 mm 4 mps 770 mmHg 63%
    09:00 +6°C° 0 mm 4 mps 770 mmHg 57%
    10:00 +9°C° 0 mm 3 mps 771 mmHg 52%
    11:00 +10°C° 0 mm 3 mps 771 mmHg 49%
    12:00 +11°C° 0 mm 3 mps 770 mmHg 46%
    13:00 +11°C° 0 mm 3 mps 770 mmHg 42%
    14:00 +11°C° 0 mm 3 mps 770 mmHg 46%
    15:00 +11°C° 0 mm 3 mps 771 mmHg 50%
    16:00 +10°C° 0 mm 3 mps 771 mmHg 53%
    17:00 +9°C° 0 mm 3 mps 771 mmHg 56%
    18:00 +8°C° 0 mm 3 mps 771 mmHg 58%
    19:00 +5°C° 0 mm 3 mps 771 mmHg 61%
    20:00 +5°C° 0 mm 3 mps 772 mmHg 61%
    21:00 +5°C° 0 mm 3 mps 772 mmHg 62%
    22:00 +5°C° 0 mm 2 mps 772 mmHg 63%
    23:00 +5°C° 0 mm 2 mps 772 mmHg 63%

    Day after tomorrow, 25 January, Thursday

    Time Temperature Precipitation Wind Pressure Humidity
    00:00 +5°C° 0 mm 2 mps 772 mmHg 63%
    01:00 +5°C° 0 mm 2 mps 772 mmHg 63%
    02:00 +5°C° 0 mm 2 mps 772 mmHg 62%
    03:00 +5°C° 0 mm 2 mps 772 mmHg 61%
    04:00 +5°C° 0 mm 2 mps 771 mmHg 61%
    05:00 +5°C° 0 mm 2 mps 771 mmHg 59%
    06:00 +5°C° 0 mm 2 mps 771 mmHg 58%
    07:00 +5°C° 0 mm 2 mps 771 mmHg 57%
    08:00 +6°C° 0 mm 2 mps 771 mmHg 52%
    09:00 +8°C° 0 mm 2 mps 771 mmHg 47%
    10:00 +11°C° 0 mm 1 mps 771 mmHg 42%
    11:00 +12°C° 0 mm 1 mps 771 mmHg 41%
    12:00 +13°C° 0 mm 1 mps 770 mmHg 40%
    13:00 +14°C° 0 mm 1 mps 770 mmHg 38%
    14:00 +13°C° 0 mm 1 mps 770 mmHg 44%
    15:00 +12°C° 0 mm 1 mps 769 mmHg 49%
    16:00 +12°C° 0 mm 1 mps 769 mmHg 54%
    17:00 +11°C° 0 mm 1 mps 769 mmHg 57%
    18:00 +9°C° 0 mm 1 mps 769 mmHg 59%
    19:00 +8°C° 0 mm 1 mps 769 mmHg 62%
    20:00 +8°C° 0 mm 1 mps 769 mmHg 62%
    21:00 +8°C° 0 mm 1 mps 769 mmHg 62%
    22:00 +8°C° 0 mm 1 mps 769 mmHg 62%
    23:00 +7°C° 0 mm 2 mps 769 mmHg 61%

    26 January, Friday

    Time Temperature Precipitation Wind Pressure Humidity
    00:00 +6°C° 0 mm 2 mps 769 mmHg 61%
    01:00 +6°C° 0 mm 2 mps 769 mmHg 61%
    02:00 +6°C° 0 mm 2 mps 768 mmHg 60%
    03:00 +6°C° 0 mm 2 mps 768 mmHg 59%
    04:00 +6°C° 0 mm 2 mps 768 mmHg 59%
    05:00 +6°C° 0 mm 2 mps 768 mmHg 58%
    06:00 +6°C° 0 mm 2 mps 768 mmHg 57%
    07:00 +5°C° 0 mm 3 mps 768 mmHg 56%
    08:00 +8°C° 0 mm 3 mps 768 mmHg 53%
    09:00 +9°C° 0 mm 3 mps 768 mmHg 50%
    10:00 +11°C° 0 mm 3 mps 768 mmHg 47%
    11:00 +12°C° 0 mm 3 mps 768 mmHg 48%
    12:00 +13°C° 0 mm 3 mps 767 mmHg 49%
    13:00 +13°C° 0 mm 3 mps 767 mmHg 50%
    14:00 +13°C° 0 mm 3 mps 767 mmHg 55%
    15:00 +12°C° 0 mm 3 mps 767 mmHg 60%
    16:00 +12°C° 0 mm 3 mps 766 mmHg 65%
    17:00 +11°C° 0 mm 3 mps 767 mmHg 68%
    18:00 +10°C° 0 mm 3 mps 767 mmHg 72%
    19:00 +8°C° 0 mm 3 mps 767 mmHg 75%
    20:00 +8°C° 0 mm 3 mps 767 mmHg 75%
    21:00 +8°C° 0 mm 3 mps 768 mmHg 75%
    22:00 +8°C° 0 mm 3 mps 768 mmHg 75%
    23:00 +7°C° 0 mm 3 mps 768 mmHg 74%

    27 January, Saturday

    Time Temperature Precipitation Wind Pressure Humidity
    00:00 +7°C° 0 mm 3 mps 768 mmHg 73%
    01:00 +7°C° 0 mm 3 mps 768 mmHg 73%
    02:00 +7°C° 0 mm 3 mps 768 mmHg 72%
    03:00 +7°C° 0 mm 3 mps 767 mmHg 71%
    04:00 +7°C° 0 mm 3 mps 767 mmHg 70%
    05:00 +7°C° 0 mm 3 mps 767 mmHg 69%
    06:00 +7°C° 0 mm 3 mps 768 mmHg 68%
    07:00 +5°C° 0 mm 3 mps 768 mmHg 67%
    08:00 +8°C° 0 mm 3 mps 768 mmHg 62%
    09:00 +10°C° 0 mm 3 mps 768 mmHg 56%
    10:00 +12°C° 0 mm 3 mps 768 mmHg 51%
    11:00 +13°C° 0 mm 3 mps 768 mmHg 49%
    12:00 +15°C° 0 mm 2 mps 768 mmHg 47%
    13:00 +16°C° 0 mm 2 mps 768 mmHg 44%
    14:00 +15°C° 0 mm 2 mps 768 mmHg 49%
    15:00 +15°C° 0 mm 2 mps 768 mmHg 53%
    16:00 +14°C° 0 mm 2 mps 768 mmHg 57%
    17:00 +13°C° 0 mm 2 mps 768 mmHg 60%
    18:00 +12°C° 0 mm 1 mps 769 mmHg 63%
    19:00 +10°C° 0 mm 1 mps 769 mmHg 67%
    20:00 +10°C° 0 mm 1 mps 769 mmHg 66%
    21:00 +10°C° 0 mm 1 mps 770 mmHg 66%
    22:00 +10°C° 0 mm 1 mps 770 mmHg 65%
    23:00 +10°C° 0 mm 1 mps 770 mmHg 65%

    28 January, Sunday

    Time Temperature Precipitation Wind Pressure Humidity
    00:00 +9°C° 0 mm 1 mps 770 mmHg 64%
    01:00 +9°C° 0 mm 1 mps 770 mmHg 64%
    02:00 +9°C° 0 mm 1 mps 770 mmHg 63%
    03:00 +9°C° 0 mm 1 mps 770 mmHg 63%
    04:00 +9°C° 0 mm 1 mps 770 mmHg 63%
    05:00 +9°C° 0 mm 1 mps 770 mmHg 62%
    06:00 +8°C° 0 mm 1 mps 771 mmHg 62%
    07:00 +7°C° 0 mm 2 mps 771 mmHg 62%
    08:00 +10°C° 0 mm 1 mps 771 mmHg 57%
    09:00 +12°C° 0 mm 1 mps 771 mmHg 52%
    10:00 +14°C° 0 mm 1 mps 772 mmHg 47%
    11:00 +15°C° 0 mm 2 mps 771 mmHg 45%
    12:00 +16°C° 0 mm 2 mps 771 mmHg 43%
    13:00 +17°C° 0 mm 3 mps 771 mmHg 41%
    14:00 +16°C° 0 mm 3 mps 771 mmHg 47%
    15:00 +14°C° 0 mm 3 mps 771 mmHg 52%
    16:00 +14°C° 0 mm 4 mps 771 mmHg 57%
    17:00 +12°C° 0 mm 3 mps 771 mmHg 60%
    18:00 +11°C° 0 mm 3 mps 771 mmHg 64%
    19:00 +9°C° 0 mm 3 mps 771 mmHg 67%
    20:00 +9°C° 0 mm 3 mps 772 mmHg 67%
    21:00 +9°C° 0 mm 3 mps 772 mmHg 66%
    22:00 +9°C° 0 mm 3 mps 772 mmHg 65%
    23:00 +8°C° 0 mm 3 mps 772 mmHg 65%
    Show more